Wind_Speed
23 23 22 22 22 21 21 20 19 19 18 18 17 18 18 19 20 21 21 21 20 18 16 16 17 17 17 16 16 15 15 16 15 18 17 11 9 12 13 12 19 22 22 24 25 27 25 18 18 18 15 12 9 9 10 6 5 4 2 3 3 3 2 1 1 1 2 3 9 13 15 12 10 9 10 10 9 13 13 6 9 8 3 9 14 22 30 30
23 23 22 22 22 22 21 21 20 20 19 18 18 18 18 19 20 21 22 21 20 17 15 15 16 17 17 17 16 16 16 15 17 19 14 9 9 9 13 13 18 25 25 27 28 28 29 24 21 21 16 11 8 8 10 8 7 7 4 4 4 3 1 1 2 3 4 1 8 12 13 11 11 13 12 10 10 14 11 8 11 11 10 12 16 27 31 30
23 22 22 22 22 21 21 21 21 20 19 19 19 19 19 19 20 21 21 20 18 17 16 17 17 17 17 17 17 16 15 16 18 14 6 6 10 10 15 18 20 26 26 26 27 27 29 29 26 23 16 8 7 8 10 10 9 8 6 5 5 4 3 3 5 6 6 2 9 12 11 9 11 14 12 9 12 14 11 11 13 14 17 19 22 30 31 30
23 22 22 22 21 21 21 21 21 20 20 19 19 19 19 19 20 20 20 19 18 18 19 20 19 17 16 16 16 15 14 14 9 3 1 2 3 11 17 21 24 25 25 25 26 27 27 29 28 24 16 7 7 8 9 12 9 8 8 5 2 1 3 2 3 3 3 3 8 12 11 9 11 13 12 12 11 9 12 17 18 20 24 25 28 31 32 32
24 23 22 22 21 21 21 21 21 20 20 19 19 19 19 19 19 19 19 19 19 19 21 23 20 16 15 14 15 13 11 5 2 4 1 2 3 9 18 23 26 25 26 25 27 28 26 28 27 20 12 6 9 7 9 15 11 6 9 9 5 2 2 1 2 5 5 1 6 11 11 10 11 11 13 16 11 6 12 18 20 23 26 27 32 32 32 33
25 24 23 22 22 22 21 21 21 21 20 20 19 19 19 19 19 18 18 19 19 20 22 22 18 13 12 12 14 12 7 2 1 6 5 1 5 6 19 24 27 26 26 26 27 28 27 28 24 16 9 6 11 9 7 16 13 6 8 11 12 9 7 6 3 5 8 1 6 9 10 10 12 11 14 19 12 4 9 17 21 23 24 27 34 34 33 35
25 24 23 23 23 22 22 21 21 21 21 20 19 19 20 19 18 18 18 19 19 21 21 18 12 9 11 11 12 11 9 8 6 10 9 5 4 4 18 23 25 27 27 29 30 31 31 30 22 16 11 5 10 9 6 14 15 9 7 9 11 10 12 12 10 10 8 5 6 8 9 12 15 10 13 19 12 4 7 16 22 22 24 28 35 35 34 35
25 24 24 23 23 23 23 22 22 22 21 21 19 19 20 19 19 18 18 19 19 20 19 13 9 10 11 11 11 12 12 12 6 5 7 4 2 3 16 23 24 27 29 30 31 34 35 32 25 17 11 5 7 9 7 10 13 13 10 7 7 8 10 11 10 10 8 8 6 9 11 14 17 9 11 17 11 8 9 15 22 24 26 31 35 36 34 33
26 25 25 24 24 24 24 23 22 22 22 20 18 18 19 19 19 18 18 19 19 19 17 11 9 11 12 13 11 9 10 8 3 1 5 3 1 2 13 23 24 27 30 29 31 34 33 30 27 20 11 8 7 8 10 8 7 13 14 8 6 7 8 9 10 10 9 6 5 10 11 13 15 7 8 15 12 12 13 18 24 27 29 32 34 36 36 34
27 27 26 26 25 25 25 24 23 22 22 20 19 18 18 19 18 18 18 19 18 18 16 12 13 14 13 14 11 5 6 6 5 4 3 5 3 2 10 24 27 28 31 30 31 35 34 30 31 22 9 8 7 7 12 10 3 6 13 13 13 13 14 14 14 14 12 7 8 10 9 11 15 10 7 12 17 17 18 23 27 29 31 33 34 35 36 36
28 27 27 27 27 26 26 25 24 23 22 21 19 18 18 18 18 18 18 17 17 16 15 14 14 15 16 16 9 5 7 7 7 7 7 7 5 4 4 21 30 30 31 33 32 34 34 31 32 23 5 5 8 6 11 13 7 4 6 9 12 14 15 15 14 14 10 6 10 12 9 8 12 12 10 13 21 21 22 26 29 30 32 33 35 36 35 35
29 28 28 29 28 27 26 25 25 23 23 21 19 19 19 18 18 18 17 16 15 14 13 14 15 16 18 18 13 7 7 8 7 8 10 11 9 6 3 13 28 33 31 33 33 32 32 29 30 22 5 4 8 4 7 14 13 9 7 7 7 8 12 13 13 11 7 6 8 9 7 6 11 14 12 16 22 22 23 26 27 29 29 32 34 35 36 36
29 29 29 29 29 28 26 25 25 24 23 21 19 20 19 19 19 16 16 14 11 13 15 16 17 17 16 13 9 7 6 7 7 8 8 9 8 7 5 9 23 34 32 33 32 31 31 27 28 22 5 4 7 3 2 8 11 10 8 7 6 7 8 8 9 10 9 8 8 8 4 5 11 15 13 17 23 23 22 24 25 26 26 29 32 34 36 37
28 29 29 28 29 27 26 25 24 24 22 21 20 20 19 19 17 16 14 9 11 15 16 14 14 14 10 5 8 12 6 1 2 5 4 4 4 4 7 8 20 33 32 32 31 30 29 23 25 21 7 4 3 2 1 2 6 7 5 5 5 5 5 2 3 8 9 7 13 11 5 6 8 13 16 20 26 26 23 23 24 25 25 27 31 33 34 37
29 29 29 29 29 27 25 25 24 23 22 21 21 20 20 17 15 16 9 7 14 16 11 12 13 10 7 4 8 13 10 4 3 4 2 3 4 2 7 10 21 29 27 28 29 30 26 19 21 18 9 6 4 4 3 1 3 4 5 5 5 5 7 4 3 8 8 4 14 13 5 6 7 9 19 23 27 28 23 23 24 25 26 27 29 31 33 35
30 30 30 30 29 27 25 24 23 22 22 23 22 21 20 15 16 12 5 10 17 10 9 15 16 7 3 6 8 11 15 11 8 5 3 3 4 2 4 10 22 26 21 20 24 29 24 15 15 13 7 6 6 4 2 3 4 4 6 5 6 7 9 6 3 9 10 4 12 14 6 4 3 7 19 23 27 28 23 23 25 25 27 28 29 29 30 31
31 31 31 31 29 27 24 22 22 21 22 23 22 21 17 15 14 6 5 16 15 6 8 16 17 4 0 12 14 15 22 17 8 4 4 3 4 6 6 12 23 24 18 14 15 23 23 13 9 9 7 6 5 4 5 7 7 5 6 5 5 8 9 6 2 6 11 7 10 13 10 8 2 6 17 23 27 26 23 23 25 25 26 27 27 28 30 31
31 32 31 31 30 26 22 19 19 20 22 22 22 19 13 14 9 4 10 21 13 5 6 15 17 2 1 16 19 21 27 20 6 3 4 4 4 7 9 15 23 23 17 13 11 16 20 13 7 6 6 7 7 7 9 7 6 7 7 6 5 7 9 8 4 2 7 10 10 12 12 12 6 5 13 20 25 25 24 24 25 26 26 26 27 28 30 32
32 32 32 32 30 25 19 17 17 19 20 20 22 15 9 14 6 4 16 19 11 6 3 10 14 2 5 18 22 24 23 15 4 5 3 3 4 10 10 12 22 25 17 11 9 13 15 10 7 8 8 11 11 13 13 3 0 6 8 6 7 9 8 8 6 1 3 7 10 11 12 12 10 7 11 17 22 24 22 21 22 23 24 25 26 27 29 32
32 32 32 32 29 23 15 14 15 16 17 19 21 13 10 17 6 3 20 16 10 11 4 7 8 4 11 19 21 24 16 11 10 7 6 2 8 15 12 12 19 19 13 10 9 12 14 9 9 12 12 14 14 14 13 4 2 2 5 7 8 9 9 6 5 3 3 5 8 10 11 12 12 10 12 16 20 20 19 19 20 22 23 25 27 28 30 32
32 32 32 32 28 19 11 12 13 14 15 17 20 16 14 16 7 6 18 11 10 13 7 6 5 6 16 16 18 25 16 12 15 11 6 5 13 14 12 14 14 10 10 10 8 9 12 10 12 15 11 9 10 11 10 9 9 5 4 6 7 9 9 6 3 3 3 5 7 8 10 13 13 11 11 14 16 17 20 21 21 23 24 25 28 29 29 27
32 31 31 31 25 14 8 9 11 12 13 15 20 20 16 15 11 10 11 7 10 11 8 10 7 10 20 14 15 23 15 9 13 16 13 5 13 10 10 13 10 8 10 10 7 7 9 11 13 12 8 6 7 10 11 13 14 11 5 5 5 5 5 7 6 4 4 5 5 6 9 12 11 10 11 14 16 19 24 26 26 28 28 27 29 29 28 26
32 32 31 30 21 10 6 7 10 10 12 15 19 21 17 16 14 12 7 5 9 7 7 11 9 15 22 15 17 22 11 5 8 14 17 5 9 7 9 11 8 8 11 12 10 9 7 10 12 9 9 11 10 11 14 12 11 12 9 7 6 3 3 6 4 2 5 7 6 5 7 9 7 6 9 16 21 20 22 25 24 26 29 30 30 30 29 30
31 32 31 29 17 9 6 6 10 12 12 15 17 19 17 16 15 12 5 3 5 4 4 10 9 15 21 15 19 19 7 4 7 12 17 10 1 2 6 9 9 8 10 14 14 11 6 3 9 13 11 14 13 12 14 12 9 12 14 11 8 5 5 4 2 4 4 7 7 6 7 9 7 7 8 12 18 17 17 19 19 20 22 22 23 26 28 31
30 31 31 27 16 9 7 7 11 14 12 14 16 18 17 18 17 9 2 2 2 2 2 8 7 12 18 16 20 16 5 4 9 13 16 11 5 2 3 6 9 7 10 15 13 11 9 4 13 16 15 16 14 13 15 12 8 11 15 16 12 8 7 7 7 6 4 5 5 5 9 8 6 10 10 8 11 14 14 16 20 21 20 20 21 25 27 29
29 30 29 25 16 11 7 7 12 14 12 13 16 19 17 18 15 4 2 1 1 1 2 6 5 11 16 16 22 13 3 3 9 12 15 9 4 3 4 4 7 6 8 11 7 6 8 7 12 13 15 18 16 13 14 14 9 8 12 16 16 12 9 10 9 5 4 4 1 2 8 7 5 9 10 8 11 15 15 15 20 22 21 24 26 26 28 29
27 28 27 23 17 13 9 9 13 13 13 14 17 18 17 17 10 2 3 1 0 1 3 6 4 11 14 14 20 8 2 9 9 10 16 9 1 5 7 4 6 6 7 8 5 4 8 10 12 11 12 14 14 12 14 16 11 8 7 12 15 14 13 12 10 7 6 5 6 6 6 6 7 6 5 8 12 13 15 16 18 20 23 27 28 27 29 31
26 27 26 22 16 14 11 10 13 12 13 15 17 18 17 13 2 4 1 2 0 2 3 5 3 10 13 10 17 10 2 11 8 9 15 8 3 3 8 5 6 7 8 10 7 5 8 12 13 12 11 10 11 12 14 18 13 7 6 9 11 13 13 12 9 8 6 5 8 8 5 5 8 5 2 6 11 11 14 17 16 18 24 27 28 29 30 31
25 25 25 21 15 13 11 10 12 11 14 16 17 18 14 6 4 3 1 2 1 3 2 5 4 9 13 7 13 14 7 7 7 11 14 9 4 3 5 3 5 7 8 10 10 5 5 11 15 14 11 9 10 11 11 17 13 4 8 9 10 11 11 10 9 8 7 8 10 10 7 6 9 7 5 6 8 10 12 14 14 18 24 26 27 29 28 28
25 25 25 20 15 13 12 11 10 12 14 16 19 17 6 2 3 2 0 2 2 3 2 7 5 7 12 6 7 12 9 8 10 14 12 11 10 6 2 3 2 4 7 7 9 9 6 7 13 14 13 10 10 10 11 17 14 6 8 8 8 8 8 8 7 5 7 10 12 13 11 8 9 9 8 7 6 8 9 10 11 16 22 25 25 26 26 27
25 25 25 19 12 12 14 12 11 12 14 17 21 12 2 3 0 3 1 1 1 2 1 5 6 5 9 8 5 10 8 8 12 13 10 10 12 12 8 3 5 3 7 7 8 9 9 10 9 7 12 13 10 9 11 16 15 9 8 8 5 4 5 6 5 5 9 11 10 13 13 11 12 10 6 7 7 8 9 10 11 15 21 25 26 27 28 30
25 26 24 16 9 9 12 14 15 14 15 20 19 5 5 1 1 2 1 0 1 2 2 4 7 5 4 6 7 9 7 7 12 10 8 6 7 10 8 4 4 2 8 8 6 6 9 12 7 3 10 16 13 9 9 12 13 11 10 9 8 5 5 7 7 7 10 9 5 9 11 12 12 10 7 8 8 10 10 10 12 15 20 24 26 28 29 29
26 26 21 12 7 9 11 13 16 15 15 20 14 1 4 1 1 1 3 2 1 3 2 2 5 5 3 4 7 9 4 6 11 9 6 5 5 6 7 9 7 2 3 3 4 6 8 10 10 9 9 12 15 11 7 9 11 12 11 10 10 7 7 9 8 7 9 7 3 6 7 9 9 7 11 13 14 16 13 12 14 17 20 24 26 28 28 28
26 24 16 8 7 11 13 14 15 14 15 18 9 3 2 1 1 2 2 3 2 2 2 2 3 4 7 5 6 7 3 5 9 9 5 3 3 3 5 9 11 5 2 2 2 6 9 8 8 10 4 3 11 14 11 9 9 12 12 10 10 9 8 8 7 7 7 5 5 9 6 7 5 2 5 12 17 20 18 17 19 19 21 23 23 23 25 27
26 21 10 7 11 13 15 16 13 11 13 13 4 2 1 1 1 1 2 3 2 1 2 2 1 2 5 5 5 6 3 3 8 7 5 4 4 4 4 7 11 8 2 2 1 1 7 5 0 1 2 1 4 8 10 11 10 10 11 11 11 9 8 5 4 5 4 6 6 9 6 4 1 4 4 6 11 15 18 19 21 22 20 18 17 20 25 28
25 18 7 10 18 15 11 13 11 8 9 7 2 3 2 2 2 1 1 3 2 1 2 1 3 2 2 2 3 6 5 3 7 5 2 4 4 5 4 4 8 9 5 2 1 2 4 3 4 5 2 3 2 5 4 9 8 7 10 12 9 8 9 7 5 2 2 8 6 6 8 7 3 8 9 8 6 9 13 15 18 22 19 17 18 22 26 28
25 16 7 16 23 16 10 7 5 3 4 3 3 3 1 2 3 2 2 3 2 1 1 1 2 2 2 3 3 7 7 3 5 4 1 2 2 5 5 3 6 7 7 5 2 1 2 5 4 4 4 3 6 6 6 10 7 5 9 10 7 7 10 8 6 4 6 10 6 5 11 11 6 7 9 12 12 10 10 11 15 19 16 18 21 24 29 32
24 12 8 20 23 15 9 6 1 1 3 4 5 4 1 1 4 4 4 3 1 1 1 1 2 1 2 3 2 6 6 3 4 4 2 2 2 4 5 4 6 9 9 6 3 0 2 6 3 1 4 3 7 4 7 10 12 10 7 9 8 8 10 8 7 8 8 9 6 6 9 10 10 7 5 12 16 15 12 10 13 14 14 19 22 25 30 32
22 7 6 21 21 11 8 6 3 4 5 4 4 4 2 2 4 8 7 3 0 1 1 1 2 1 2 3 2 3 3 3 4 3 2 2 2 4 5 5 6 11 13 7 3 2 2 4 2 2 2 5 3 4 9 10 12 11 6 9 9 6 7 9 8 6 7 8 7 6 7 8 9 8 7 11 13 15 15 11 10 12 15 21 23 23 28 30
18 5 6 22 19 7 5 4 5 6 5 3 3 2 3 2 4 10 11 6 1 1 2 1 1 1 1 1 1 1 2 1 2 2 1 2 2 3 5 6 6 11 15 8 3 3 2 3 3 1 2 5 4 5 6 4 5 8 7 9 11 6 4 6 9 8 7 7 6 6 7 7 4 5 10 13 11 12 14 11 9 11 16 22 23 24 28 33
16 3 8 24 17 5 3 5 6 6 3 3 3 3 4 4 5 10 13 10 5 3 3 2 2 2 1 0 0 1 2 2 1 2 1 1 2 1 4 6 7 10 11 7 2 2 2 2 4 4 3 5 3 3 2 3 3 3 4 6 7 8 7 8 10 10 8 8 6 6 7 7 3 3 8 14 12 11 13 12 11 12 17 22 25 26 31 36
12 3 10 23 16 5 5 6 5 4 2 3 3 2 4 5 6 8 11 10 6 5 4 3 2 2 2 1 1 1 3 2 2 2 2 0 2 3 3 7 10 9 8 5 3 4 4 3 4 6 5 7 9 6 4 5 4 2 3 3 3 4 6 8 8 7 9 10 8 7 9 6 3 2 5 9 10 9 10 10 11 14 19 26 30 29 31 36
10 5 13 22 15 6 8 6 3 3 4 3 3 3 4 5 6 7 9 9 6 4 3 3 2 2 2 2 2 2 3 2 2 3 2 2 2 2 1 5 10 9 6 4 4 4 4 3 3 5 5 8 10 5 1 1 3 4 1 2 3 3 3 4 5 3 5 10 9 8 9 7 4 3 4 7 8 9 10 9 10 13 15 23 29 27 27 33
9 7 14 23 15 6 6 4 2 3 4 3 5 7 6 6 8 8 7 8 7 4 2 4 4 3 3 3 3 2 3 2 2 2 3 3 1 1 1 3 7 7 5 4 5 6 4 2 2 3 4 6 7 4 4 4 3 1 0 2 2 4 7 6 4 3 5 9 11 10 8 6 4 3 4 9 9 8 11 11 10 12 12 14 18 19 22 27
8 4 11 22 21 15 10 5 3 3 4 4 6 8 7 5 7 8 6 7 8 5 2 3 3 4 5 5 3 2 3 2 2 2 2 3 2 1 2 3 5 7 7 8 9 8 4 3 2 3 5 7 6 4 3 1 1 1 1 2 3 5 6 5 2 4 6 7 11 11 7 6 5 3 6 13 12 9 10 8 7 11 14 15 15 17 18 21
5 3 5 12 19 21 15 10 7 4 3 3 4 6 7 5 5 7 6 6 9 8 3 3 4 3 5 7 4 3 3 2 2 3 4 5 5 2 1 3 6 9 11 11 10 7 4 4 5 6 7 6 2 1 1 2 3 4 4 6 5 3 2 2 2 4 2 2 8 7 4 8 9 4 7 12 12 10 9 6 6 9 12 15 16 17 17 19
3 3 4 5 8 11 10 10 10 5 2 2 2 3 7 6 5 6 5 5 8 8 3 4 6 4 4 6 4 3 4 3 4 6 6 6 5 4 6 7 8 11 11 9 7 5 4 5 7 9 11 11 9 6 4 5 6 7 8 10 8 5 3 3 5 5 4 4 7 3 3 10 9 5 8 10 9 9 7 5 6 7 11 13 14 16 18 20
4 3 4 3 3 4 5 7 9 6 3 2 2 2 5 7 6 6 4 4 6 7 3 2 5 6 4 4 3 3 4 4 5 5 4 4 5 6 9 9 9 9 8 7 5 3 4 6 8 9 12 13 11 8 7 8 9 9 10 11 11 8 6 6 9 9 7 5 5 5 6 7 4 4 8 8 6 8 9 8 8 10 14 16 16 18 20 23
6 3 4 5 4 2 2 4 6 5 5 4 3 4 5 6 7 5 3 4 4 5 4 3 4 6 6 3 2 3 3 4 4 3 3 5 7 7 7 8 7 6 5 6 5 3 4 5 6 8 11 13 12 9 8 10 11 10 10 12 12 10 9 9 10 12 12 10 9 13 15 10 4 5 8 10 11 12 14 15 13 11 12 14 16 18 22 26
6 4 4 4 3 3 2 3 3 2 4 4 3 4 4 5 7 6 4 4 3 2 4 5 6 8 7 4 3 4 4 5 6 5 5 7 8 6 5 5 5 3 4 5 4 4 4 4 4 5 8 11 11 10 10 11 10 10 11 11 11 11 10 9 9 8 9 10 11 14 16 10 4 3 8 12 12 10 10 11 11 10 10 12 14 18 22 27
6 5 4 3 3 3 3 3 2 1 2 3 3 4 4 4 7 8 6 3 3 2 5 7 8 7 6 5 5 6 7 7 9 12 12 12 12 10 7 7 7 5 5 6 5 4 4 5 5 5 6 7 6 6 7 8 9 12 14 12 11 10 6 4 4 3 3 6 8 9 9 5 2 6 10 9 7 4 4 7 9 10 12 12 15 19 22 27
5 4 4 3 2 3 3 2 1 1 2 2 4 3 3 4 7 8 5 1 2 4 4 6 8 7 5 6 6 8 10 12 15 18 19 18 19 20 17 17 16 12 9 8 7 6 6 6 5 4 6 6 3 3 3 5 8 10 10 10 11 9 5 4 1 3 4 3 5 6 5 6 7 10 9 5 3 1 2 5 8 10 13 14 16 19 22 25
Wind_Direction
2 359 356 354 353 352 352 351 351 350 349 347 344 341 339 338 338 338 339 340 343 346 341 331 324 320 316 313 307 301 293 285 284 277 273 292 298 253 235 213 204 204 192 191 191 185 179 173 179 177 168 172 177 180 187 191 184 182 210 230 237 237 228 239 174 25 2 152 161 171 177 167 151 153 142 147 150 141 147 131 133 149 157 171 175 166 159 158
2 359 355 353 352 351 350 350 351 350 349 346 342 340 340 339 338 339 341 343 347 350 345 336 329 322 319 316 311 308 301 294 289 282 283 283 271 239 217 204 200 202 194 192 195 192 186 180 178 173 163 169 179 177 185 186 182 192 208 233 231 215 194 294 320 343 332 162 163 178 183 177 160 153 154 155 152 150 146 132 133 121 126 151 159 159 158 159
3 359 355 352 351 350 349 348 349 350 349 345 340 340 340 338 339 339 342 346 350 350 345 339 333 327 322 318 314 312 309 304 299 291 290 269 246 212 195 190 197 202 198 199 200 201 197 189 181 172 160 163 176 174 185 184 186 202 214 237 236 237 252 271 288 293 296 238 177 181 183 183 165 155 164 165 159 167 167 154 151 139 139 148 152 158 159 162
4 0 356 352 351 350 349 347 348 349 348 344 339 338 338 338 338 338 339 342 345 343 341 337 330 327 325 321 315 315 320 313 310 317 126 324 247 204 195 184 193 200 198 201 199 200 200 188 177 168 162 161 172 174 189 188 183 193 208 233 234 238 241 243 325 325 305 246 191 176 177 182 168 165 171 162 159 186 196 180 172 162 153 153 157 160 162 165
5 2 357 353 351 349 349 348 348 348 347 344 339 337 338 337 337 338 336 336 338 336 337 333 325 323 324 323 316 317 327 322 95 52 332 10 16 204 196 186 192 197 194 198 193 193 195 182 170 162 162 157 166 182 204 197 191 199 221 241 247 257 271 290 41 45 26 302 180 170 180 175 166 178 180 173 177 203 203 189 180 174 164 160 162 163 164 168
4 2 359 355 351 349 349 348 348 347 345 343 340 337 336 336 337 338 334 333 333 332 335 333 327 326 327 326 319 315 311 250 111 339 299 309 8 190 191 187 190 194 192 193 189 186 183 172 164 161 168 168 178 188 193 194 201 225 234 242 245 250 264 273 280 331 344 313 180 181 184 168 169 192 192 191 201 198 190 186 182 182 175 167 164 165 168 172
2 2 1 357 352 349 348 348 349 347 345 343 341 338 335 334 337 336 332 332 331 333 337 337 343 352 344 335 323 315 289 266 297 318 301 277 341 155 188 189 188 193 190 189 187 183 177 170 167 167 170 179 194 197 177 186 204 233 249 246 245 247 252 265 279 300 309 271 231 194 180 180 189 197 193 203 211 176 181 189 186 181 175 170 168 169 172 175
2 2 2 358 353 349 348 349 350 347 345 345 343 338 334 334 336 335 330 330 332 333 337 338 353 10 1 351 333 317 294 278 283 329 330 285 267 166 191 190 187 192 191 191 190 185 179 175 174 170 175 189 191 194 182 181 203 227 244 250 247 250 255 267 279 287 290 279 245 192 191 199 199 194 194 206 201 169 182 185 181 176 172 172 172 172 174 176
4 4 2 359 354 350 349 350 350 347 344 346 345 339 333 334 336 333 329 329 332 331 332 323 322 346 353 355 345 319 297 280 245 40 21 38 135 162 196 196 192 191 191 192 193 187 179 178 179 174 184 191 174 182 187 190 205 222 234 248 254 259 269 278 282 281 288 282 209 193 209 207 197 198 213 205 183 169 177 173 174 175 173 174 175 176 177 178
3 4 2 359 355 351 350 349 349 346 344 347 346 339 335 336 335 332 328 330 334 330 328 313 304 321 331 342 345 316 299 286 255 252 338 24 39 61 197 203 201 194 192 191 192 191 187 190 188 180 187 190 179 181 187 202 224 222 234 248 258 267 274 275 277 275 281 274 216 212 229 210 192 201 220 188 175 173 167 167 173 175 175 177 178 179 180 181
1 2 1 358 355 352 350 349 348 346 345 347 344 338 336 337 335 329 329 334 338 331 325 317 309 313 319 323 311 276 302 295 263 255 284 327 334 344 204 203 205 200 196 193 192 196 196 198 190 181 187 188 182 186 196 217 244 261 255 258 258 265 270 265 265 265 269 261 220 222 242 207 183 206 219 170 169 177 166 164 172 175 177 180 181 181 182 183
359 359 359 357 356 352 349 348 348 347 346 346 342 337 336 338 333 327 334 342 341 335 329 324 315 313 318 310 289 276 291 279 268 268 286 305 300 300 253 202 205 203 202 198 195 198 199 200 191 183 185 175 169 172 215 225 235 257 275 282 277 276 275 258 250 249 241 242 214 212 243 206 189 215 210 168 169 174 168 166 171 175 177 180 182 182 185 186
357 357 357 356 355 351 348 347 348 347 345 344 341 336 338 338 331 332 343 349 347 340 329 320 315 316 316 305 311 335 299 268 268 266 280 301 300 275 233 200 201 201 203 203 199 195 196 198 193 189 186 165 165 155 232 219 221 242 258 268 285 288 279 248 234 227 219 233 191 175 246 226 210 215 191 170 172 168 167 171 172 174 176 179 181 183 187 188
354 355 356 355 354 350 347 348 348 347 345 345 342 338 340 337 333 341 349 355 351 337 328 328 330 327 317 315 19 19 2 273 251 262 275 314 326 248 206 188 195 197 198 203 200 192 192 195 193 195 210 200 189 233 265 190 198 218 228 241 258 264 261 203 188 202 204 212 178 176 252 252 227 207 181 175 176 171 173 175 175 176 176 179 182 184 187 190
353 353 355 355 353 350 348 349 348 348 346 345 345 342 342 340 339 346 353 1 346 339 353 1 355 347 326 332 26 18 9 8 313 302 292 338 353 219 198 184 187 191 192 199 200 191 188 191 192 200 222 230 254 263 242 217 192 197 202 219 219 232 257 241 182 194 202 186 177 187 245 254 250 197 176 177 179 177 178 178 178 179 179 181 182 185 188 191
351 351 354 355 353 351 349 349 348 348 347 347 348 345 345 343 342 349 5 353 346 353 27 9 1 9 345 356 8 357 353 338 309 297 248 315 333 229 199 178 179 180 179 189 197 191 184 182 192 207 226 231 241 237 231 227 216 204 209 219 194 205 244 247 201 206 212 181 179 197 237 261 262 176 172 176 180 181 179 179 181 182 181 182 183 185 187 190
349 349 352 353 353 352 350 350 348 348 348 348 349 349 346 343 345 11 20 355 357 21 30 11 5 8 35 10 0 340 342 333 303 271 241 280 283 227 187 168 173 172 163 162 180 186 187 184 187 207 219 227 228 212 220 221 211 200 206 219 197 206 232 238 232 209 208 205 195 206 232 252 253 150 171 178 181 183 182 182 182 183 183 183 184 185 187 189
348 348 350 352 353 351 351 350 347 350 351 349 352 352 347 348 359 94 10 1 12 31 30 17 10 11 266 356 348 335 337 330 299 201 227 272 253 213 190 172 169 166 156 149 151 170 185 189 188 203 210 216 216 206 212 213 209 204 196 202 205 218 234 232 233 175 189 210 211 208 227 242 237 159 176 183 183 186 188 185 184 184 184 184 185 187 189 191
346 346 349 352 353 351 351 350 348 354 355 354 357 355 355 5 33 109 3 9 29 21 13 359 1 41 296 329 337 340 341 341 346 143 146 299 203 170 177 176 166 163 161 163 163 164 173 177 189 206 209 208 207 208 212 212 244 217 205 207 211 216 231 228 227 233 181 209 216 216 228 237 231 201 188 188 188 192 193 186 184 185 184 186 188 190 192 194
345 346 349 352 352 351 350 350 353 360 3 4 3 8 17 11 32 359 355 11 31 8 353 333 332 298 315 325 343 353 0 24 38 96 105 79 157 151 152 158 159 164 172 174 168 165 172 181 199 208 210 205 202 206 216 238 334 267 216 218 223 224 232 224 219 245 227 225 226 224 236 243 237 220 199 192 192 197 196 187 185 186 186 188 191 194 196 197
345 346 349 351 352 351 350 354 1 11 15 13 13 32 38 18 23 334 343 355 8 8 24 13 337 319 339 339 351 360 7 33 43 56 61 116 154 151 147 150 156 175 184 164 137 148 177 202 214 211 204 190 192 200 213 229 239 255 238 222 229 229 238 243 238 258 228 234 241 230 242 248 241 229 205 190 191 200 199 192 190 189 190 193 194 196 197 196
345 346 349 351 353 354 352 358 9 19 21 19 24 37 37 18 11 346 336 318 338 11 45 28 16 355 357 357 355 357 355 9 32 34 29 113 167 170 159 163 174 180 171 156 137 155 192 221 220 201 173 166 186 197 206 220 228 238 243 236 234 221 248 262 251 253 235 235 245 230 242 253 249 234 208 191 197 206 204 200 195 191 191 194 196 196 194 190
345 346 349 352 356 358 349 356 12 16 15 20 28 28 19 8 358 347 342 286 316 6 46 25 21 3 4 7 354 351 350 355 4 13 20 63 179 191 176 178 184 171 169 178 182 179 195 226 213 169 158 187 194 195 203 214 224 230 229 232 230 203 235 246 221 228 240 240 256 255 254 261 255 232 209 202 206 209 208 207 203 196 195 196 197 195 192 189
346 345 349 354 356 356 338 333 359 7 8 14 21 16 5 355 345 340 338 250 301 338 25 22 20 6 4 0 350 346 334 338 346 359 11 19 16 207 192 188 184 177 182 192 198 199 206 202 166 157 172 196 196 194 201 210 220 224 226 229 227 218 231 252 335 347 272 237 240 256 267 265 246 235 227 207 209 213 208 208 210 208 204 199 197 197 195 194
346 344 350 354 354 352 333 316 349 2 1 5 8 2 352 343 337 335 322 207 291 311 15 21 16 4 1 355 352 347 290 320 354 359 7 7 341 274 186 186 195 199 187 191 202 214 226 168 145 165 185 196 203 205 202 206 218 224 225 226 229 233 239 260 296 315 283 232 205 216 249 258 231 234 239 197 198 215 207 204 211 210 203 199 200 201 200 199
346 344 348 352 349 349 343 333 349 355 353 357 355 349 343 335 329 329 136 171 20 52 15 7 8 4 2 358 354 347 228 346 1 6 9 359 309 224 192 174 198 210 174 183 213 227 224 178 158 180 189 190 204 214 206 203 217 234 218 213 222 234 240 248 266 273 258 257 254 222 245 256 227 227 233 192 192 211 206 208 215 208 200 203 205 203 201 201
346 343 345 347 345 349 360 355 348 350 351 348 345 341 335 330 324 173 161 238 340 63 9 355 4 6 2 1 4 9 210 340 345 12 12 1 353 191 207 179 184 207 156 166 226 212 198 184 175 191 195 193 203 213 204 194 212 241 196 186 207 223 232 238 250 252 258 292 292 259 241 261 254 229 216 194 202 211 205 212 217 206 203 207 208 206 204 202
345 341 341 343 342 345 354 353 347 348 346 340 340 339 332 329 328 149 203 249 340 55 16 349 357 6 0 9 23 35 343 341 338 3 14 12 16 184 212 207 192 198 166 186 221 173 182 200 188 187 202 207 209 212 197 189 213 237 161 167 196 214 226 231 244 251 260 287 269 244 213 250 258 228 151 191 211 214 209 216 215 206 208 209 208 208 206 204
342 339 339 339 336 336 334 343 350 345 340 339 341 338 332 332 152 147 320 223 65 59 29 359 7 2 356 7 28 23 1 6 350 341 9 25 7 184 208 248 215 208 192 209 232 214 203 210 192 191 212 216 211 216 191 188 211 206 150 172 192 206 219 222 235 247 250 254 251 239 212 234 260 237 193 192 212 215 212 218 214 208 212 211 209 210 207 203
342 339 339 337 332 329 323 330 345 340 337 341 343 341 339 119 159 192 198 201 44 53 21 10 12 350 357 8 21 12 4 11 351 336 2 31 40 67 64 358 352 247 218 219 239 242 268 232 195 200 216 209 203 212 194 195 203 161 155 181 182 196 209 213 226 235 246 247 242 237 218 222 259 249 214 201 214 213 204 211 212 211 215 214 212 210 206 203
343 339 339 337 327 325 322 321 329 332 334 341 345 343 162 125 264 211 150 179 40 46 65 24 16 358 20 35 17 3 4 4 358 354 7 25 39 40 25 15 6 309 212 222 235 229 248 237 205 205 210 197 194 206 200 202 200 178 186 192 173 182 190 205 205 196 236 246 231 226 218 218 242 245 211 199 212 216 209 207 205 207 214 215 212 210 206 204
345 341 342 339 322 322 323 315 318 322 329 340 345 349 171 171 261 197 25 303 194 35 50 33 19 12 26 40 24 360 354 5 2 7 20 21 42 44 38 34 354 265 207 224 214 200 232 227 206 218 206 192 193 202 195 199 202 199 200 194 193 195 180 203 205 196 231 245 219 207 207 219 242 251 238 226 226 227 222 215 210 209 211 212 211 209 207 205
347 345 345 343 318 318 318 306 312 316 325 339 344 114 162 254 192 108 9 22 52 29 36 23 19 29 34 41 24 356 346 24 7 2 17 23 57 69 56 39 15 296 227 245 199 201 227 216 202 213 211 196 198 201 196 193 197 201 201 195 199 197 195 209 209 210 230 239 201 169 192 232 252 252 233 231 240 240 230 222 223 218 213 215 214 209 206 205
350 349 347 350 328 318 311 302 310 318 327 338 340 159 174 230 137 48 24 33 22 15 34 10 342 30 51 55 25 2 6 43 17 6 8 11 41 54 39 28 20 7 324 292 222 215 223 220 204 202 209 207 206 213 211 189 188 202 201 203 207 203 210 214 208 216 234 248 197 165 182 229 225 208 210 218 235 238 230 224 226 227 222 221 217 207 203 204
350 348 347 353 340 323 304 294 300 318 331 338 347 143 162 155 82 40 44 12 337 344 23 31 8 35 56 51 28 23 22 20 14 11 27 40 36 28 18 10 12 14 351 255 275 249 239 246 37 236 303 351 219 233 219 196 197 203 195 205 216 208 209 220 226 226 240 265 226 186 212 246 244 314 284 227 234 233 228 222 220 225 222 212 207 203 203 205
349 348 347 344 344 340 315 290 281 301 330 338 47 86 64 79 29 337 18 347 302 1 345 13 45 34 43 34 21 23 15 359 5 359 46 56 41 34 29 1 8 16 18 329 315 356 255 244 22 345 260 142 23 329 253 220 209 181 194 210 205 193 207 222 232 208 217 248 234 188 231 251 273 278 254 223 232 230 228 223 220 225 213 194 200 205 204 204
349 352 358 350 349 352 345 316 276 277 338 8 97 86 86 86 25 339 340 328 275 12 349 343 25 2 13 24 17 15 5 343 2 359 19 48 43 36 21 352 1 7 12 353 292 43 305 282 327 317 204 133 351 320 260 249 234 184 200 200 167 181 214 227 231 211 210 238 228 183 228 236 226 245 224 210 223 226 220 218 222 224 205 195 206 209 210 209
347 351 4 358 354 351 357 7 6 159 97 76 95 92 67 55 34 3 341 327 272 105 94 76 26 6 13 11 9 13 357 337 8 3 346 1 48 47 22 351 350 348 351 341 281 77 328 285 288 235 232 313 335 285 232 236 231 229 213 175 166 200 208 204 224 228 220 236 236 199 226 237 224 223 209 208 219 227 223 214 223 221 200 203 210 209 214 212
345 353 4 359 356 353 11 35 61 110 109 80 96 97 35 25 30 6 357 351 215 71 88 104 33 48 44 17 357 2 353 349 2 345 343 5 19 59 42 8 340 339 343 339 293 316 323 267 230 132 286 305 315 222 218 213 214 228 219 183 195 220 208 199 211 226 224 234 240 212 217 238 232 227 235 226 217 222 223 212 219 219 200 206 211 207 209 208
352 14 3 357 359 3 18 44 62 74 87 68 85 84 16 20 15 4 11 27 52 26 57 129 72 65 77 38 299 348 359 337 338 326 344 9 4 67 49 14 343 335 335 329 292 305 314 253 251 311 305 262 215 183 207 206 198 214 215 205 205 201 196 208 213 219 224 231 234 223 227 242 228 202 231 237 224 220 225 216 215 216 205 208 210 206 206 209
3 24 351 356 4 25 49 68 56 47 73 71 65 47 11 18 12 4 15 31 47 42 52 89 86 84 96 53 208 14 338 283 287 305 278 11 12 55 49 15 347 333 329 317 305 341 333 272 275 291 283 239 202 116 77 0 340 257 238 227 216 207 202 210 217 215 220 234 232 229 245 250 225 180 221 231 225 217 218 217 219 219 212 213 214 212 214 216
18 30 350 358 8 40 76 78 45 29 72 54 35 7 358 11 13 5 11 22 35 37 47 71 67 72 77 340 306 353 337 291 257 273 254 209 334 326 26 13 342 328 322 302 302 329 314 286 274 271 267 265 274 295 309 281 267 254 263 294 305 262 218 214 224 212 209 224 228 238 254 255 227 216 231 234 237 239 232 223 224 225 219 222 224 220 218 221
18 8 2 7 14 53 85 82 43 48 65 34 25 26 16 23 24 16 16 19 17 14 40 63 41 42 58 13 322 320 337 310 253 255 275 276 294 308 9 4 341 327 319 308 310 322 299 261 257 263 264 271 271 278 35 211 183 165 195 2 357 319 301 272 266 263 222 217 211 227 246 246 226 216 246 254 258 270 274 262 245 242 234 230 230 224 218 221
3 355 15 18 22 60 83 65 41 67 53 30 47 42 34 45 35 22 22 22 14 359 34 53 29 19 23 358 332 327 329 310 257 256 287 287 272 161 217 336 339 329 322 324 334 338 315 241 244 260 227 218 221 188 141 131 110 104 25 21 354 341 341 307 261 272 254 219 211 226 238 243 231 181 225 253 256 260 265 261 251 253 254 248 244 235 226 223
358 355 21 27 42 68 77 61 64 78 51 45 55 38 26 42 33 19 20 26 19 9 23 50 37 35 22 357 334 338 326 295 285 297 297 301 299 242 234 284 316 318 311 308 314 321 303 258 259 257 221 202 192 191 196 170 39 346 277 291 314 349 348 319 248 234 239 213 216 231 238 244 237 177 213 241 251 256 255 246 233 240 247 253 258 254 243 231
10 12 2 22 48 64 67 60 53 62 53 39 55 41 26 26 14 8 19 35 22 14 30 52 31 31 26 8 350 335 318 274 309 322 300 295 299 284 262 290 303 304 300 301 309 310 283 265 261 260 262 262 271 344 313 313 306 297 302 298 301 330 330 307 241 231 252 246 230 223 228 249 244 206 206 227 240 254 260 249 226 226 238 247 256 263 259 245
45 41 352 348 35 49 56 51 40 42 74 29 38 37 24 24 11 3 20 34 14 5 25 65 44 36 21 7 350 317 306 292 305 311 298 292 297 302 311 314 306 297 294 298 309 306 276 265 259 258 263 271 286 298 291 285 280 282 292 291 292 298 276 241 237 261 328 300 245 196 197 243 242 218 220 228 235 245 252 249 240 246 255 256 260 265 263 253
63 70 28 23 33 29 34 27 15 22 63 68 69 42 23 30 26 9 4 0 1 10 19 61 51 38 15 355 323 290 298 299 296 299 300 310 315 312 315 314 301 291 286 290 306 307 274 265 264 264 266 270 278 279 270 268 269 269 271 274 279 278 259 243 250 261 270 260 270 304 280 259 272 275 261 266 278 278 280 288 296 291 283 279 276 271 263 258
65 79 41 42 63 61 25 357 351 20 51 54 56 37 21 24 21 9 346 324 340 30 28 357 6 4 349 325 274 263 286 298 295 298 312 315 311 306 305 303 298 288 271 275 296 299 269 265 269 270 272 273 271 263 259 263 265 264 260 260 266 268 261 257 257 257 250 242 257 278 281 284 302 305 305 310 312 311 302 301 308 305 293 289 283 273 264 259
53 53 28 31 66 82 56 5 354 32 52 42 43 31 16 15 10 356 331 303 294 33 22 351 342 338 329 311 268 258 276 291 288 288 297 300 297 290 282 283 284 272 256 267 292 291 259 267 309 307 280 271 265 254 248 250 259 267 266 261 257 257 258 257 260 263 255 246 245 256 269 278 274 317 322 307 303 313 308 307 319 320 312 304 289 276 266 258
54 50 34 27 55 55 40 22 9 39 72 42 30 22 5 6 5 347 325 276 245 295 343 339 334 328 314 292 269 271 284 285 276 276 277 277 275 270 261 260 263 265 265 264 271 274 255 270 309 319 284 269 259 240 238 246 262 267 263 254 243 239 239 238 256 292 286 266 255 247 256 273 334 337 316 289 283 308 317 323 325 316 311 303 288 278 270 262
52 47 28 17 52 42 24 24 8 11 66 31 19 24 353 344 357 349 340 284 237 283 317 321 319 318 301 285 288 298 299 289 280 278 276 269 264 262 258 253 252 254 257 261 264 260 255 268 283 276 274 272 233 218 258 265 261 258 249 229 212 206 196 179 184 5 3 305 273 255 274 323 336 327 314 283 249 264 312 323 316 310 307 297 287 282 275 268
Height
1526 1525 1523 1521 1520 1518 1517 1515 1514 1512 1511 1509 1508 1506 1505 1503 1501 1500 1499 1498 1497 1496 1495 1493 1491 1490 1490 1489 1488 1488 1487 1487 1486 1485 1485 1483 1485 1487 1489 1490 1491 1493 1495 1496 1498 1500 1503 1505 1507 1508 1510 1512 1513 1514 1516 1516 1517 1518 1519 1521 1521 1517 1514 1509 1507 1507 1506 1506 1505 1506 1507 1507 1510 1512 1513 1515 1516 1517 1519 1521 1522 1523 1523 1524 1525 1527 1530 1533
1526 1525 1523 1521 1519 1518 1516 1514 1513 1511 1510 1508 1507 1505 1504 1502 1501 1499 1498 1497 1496 1495 1494 1492 1491 1489 1488 1488 1487 1486 1485 1485 1484 1483 1483 1482 1483 1484 1486 1489 1490 1490 1493 1494 1495 1497 1499 1502 1505 1507 1510 1512 1513 1514 1515 1515 1516 1516 1517 1519 1516 1511 1509 1505 1505 1505 1504 1505 1505 1506 1507 1507 1509 1510 1512 1514 1516 1517 1518 1521 1522 1523 1524 1525 1526 1528 1531 1534
1527 1525 1523 1521 1519 1517 1516 1514 1513 1511 1509 1508 1506 1504 1503 1502 1500 1498 1497 1496 1495 1494 1493 1492 1490 1489 1487 1486 1485 1485 1484 1483 1482 1481 1481 1480 1480 1481 1483 1486 1487 1489 1492 1493 1494 1496 1497 1499 1502 1506 1509 1511 1512 1513 1514 1514 1515 1514 1515 1516 1511 1506 1505 1505 1505 1505 1504 1505 1504 1506 1507 1508 1509 1509 1511 1512 1514 1515 1516 1518 1519 1521 1523 1525 1527 1528 1531 1534
1527 1525 1523 1521 1519 1517 1516 1514 1512 1511 1509 1507 1505 1503 1502 1501 1499 1498 1496 1495 1494 1493 1492 1491 1490 1488 1487 1485 1484 1484 1484 1482 1480 1480 1480 1479 1479 1480 1481 1483 1485 1488 1491 1494 1495 1497 1498 1500 1502 1505 1508 1510 1512 1513 1513 1513 1513 1513 1513 1511 1506 1503 1505 1505 1505 1504 1504 1504 1504 1505 1507 1508 1509 1510 1510 1511 1515 1516 1513 1514 1515 1518 1521 1523 1526 1528 1530 1534
1527 1525 1523 1521 1519 1517 1515 1513 1512 1510 1508 1506 1504 1503 1502 1500 1499 1497 1496 1494 1493 1492 1491 1490 1488 1487 1486 1485 1484 1483 1484 1482 1479 1479 1479 1478 1478 1478 1479 1481 1483 1486 1490 1492 1494 1497 1499 1501 1503 1506 1508 1509 1511 1512 1511 1510 1511 1511 1508 1505 1503 1504 1505 1505 1504 1505 1505 1505 1505 1506 1507 1507 1508 1509 1509 1509 1512 1512 1509 1512 1514 1516 1518 1521 1524 1527 1530 1533
1526 1524 1522 1520 1518 1516 1514 1513 1511 1509 1508 1506 1504 1502 1501 1499 1498 1497 1495 1493 1492 1491 1490 1488 1487 1486 1485 1485 1483 1483 1484 1481 1479 1479 1479 1478 1478 1478 1478 1479 1482 1485 1488 1491 1494 1496 1499 1501 1503 1505 1506 1507 1508 1508 1507 1508 1510 1509 1505 1502 1503 1504 1504 1504 1504 1505 1505 1506 1505 1506 1506 1507 1507 1508 1508 1507 1508 1508 1508 1511 1514 1516 1518 1520 1523 1526 1529 1531
1526 1524 1522 1520 1517 1515 1514 1512 1510 1508 1507 1505 1503 1501 1500 1498 1497 1496 1494 1493 1492 1490 1489 1487 1486 1485 1485 1484 1483 1482 1482 1481 1479 1479 1478 1478 1479 1478 1478 1479 1482 1484 1487 1489 1492 1494 1497 1499 1501 1503 1505 1506 1506 1505 1506 1507 1509 1509 1505 1502 1502 1503 1503 1503 1503 1504 1505 1505 1504 1505 1506 1506 1506 1507 1507 1507 1507 1508 1509 1510 1513 1516 1519 1521 1523 1525 1528 1530
1526 1523 1521 1519 1517 1514 1513 1511 1509 1507 1505 1504 1503 1501 1499 1497 1496 1495 1493 1492 1491 1489 1488 1487 1486 1485 1484 1484 1483 1482 1480 1479 1479 1479 1478 1478 1478 1479 1479 1479 1481 1483 1485 1488 1489 1491 1494 1496 1498 1500 1503 1504 1504 1505 1506 1507 1508 1507 1504 1501 1501 1502 1502 1502 1503 1504 1504 1504 1504 1504 1505 1504 1505 1506 1506 1506 1508 1508 1509 1511 1513 1516 1519 1521 1523 1525 1528 1531
1525 1523 1521 1518 1516 1514 1512 1510 1508 1506 1504 1503 1501 1499 1498 1496 1495 1493 1492 1491 1490 1488 1487 1486 1485 1484 1484 1483 1483 1481 1478 1478 1479 1479 1478 1478 1478 1479 1479 1479 1481 1483 1485 1487 1489 1491 1493 1494 1496 1498 1500 1501 1502 1504 1505 1507 1506 1503 1501 1501 1501 1501 1501 1501 1501 1502 1502 1503 1503 1503 1503 1503 1505 1507 1506 1506 1508 1508 1509 1511 1513 1515 1518 1520 1523 1525 1527 1529
1524 1522 1520 1517 1515 1513 1511 1509 1507 1505 1503 1502 1500 1498 1496 1495 1494 1492 1491 1489 1488 1487 1486 1485 1485 1484 1484 1483 1484 1482 1477 1477 1478 1478 1478 1478 1477 1478 1479 1479 1480 1482 1484 1486 1489 1490 1491 1493 1495 1498 1500 1501 1502 1503 1504 1505 1503 1500 1501 1501 1500 1501 1500 1500 1500 1500 1501 1501 1501 1502 1502 1502 1504 1507 1506 1504 1506 1507 1509 1511 1512 1514 1517 1519 1522 1524 1526 1528
1523 1521 1519 1517 1514 1512 1510 1508 1506 1504 1502 1500 1499 1496 1495 1494 1492 1490 1489 1488 1487 1485 1485 1484 1483 1483 1483 1482 1484 1481 1477 1477 1477 1477 1478 1477 1477 1478 1478 1479 1479 1481 1483 1485 1487 1489 1492 1494 1496 1499 1501 1500 1502 1503 1502 1502 1500 1500 1501 1501 1500 1499 1498 1497 1497 1497 1499 1499 1499 1499 1500 1501 1503 1505 1502 1502 1504 1506 1508 1510 1511 1513 1515 1518 1521 1523 1526 1528
1523 1520 1518 1516 1513 1511 1509 1507 1505 1503 1501 1499 1497 1495 1493 1492 1490 1489 1488 1487 1486 1484 1484 1483 1483 1482 1481 1480 1480 1478 1476 1476 1476 1477 1477 1476 1477 1477 1477 1478 1479 1481 1482 1484 1486 1489 1493 1495 1497 1499 1499 1499 1501 1503 1501 1500 1501 1501 1501 1503 1500 1498 1496 1493 1493 1495 1496 1497 1496 1498 1503 1504 1502 1500 1499 1500 1503 1505 1507 1509 1511 1513 1515 1517 1520 1522 1525 1527
1522 1520 1517 1515 1512 1510 1508 1506 1504 1502 1499 1498 1496 1494 1492 1490 1489 1487 1487 1486 1485 1484 1483 1482 1481 1481 1480 1478 1476 1475 1475 1475 1475 1476 1476 1476 1476 1476 1476 1477 1478 1481 1483 1484 1486 1489 1493 1495 1497 1499 1499 1499 1500 1501 1500 1498 1501 1502 1501 1503 1502 1501 1497 1489 1489 1492 1494 1495 1494 1499 1510 1507 1497 1495 1497 1499 1502 1504 1507 1508 1510 1512 1514 1517 1519 1521 1523 1526
1522 1519 1517 1514 1512 1509 1507 1505 1503 1500 1498 1497 1495 1492 1491 1489 1487 1486 1486 1485 1484 1483 1482 1481 1480 1479 1479 1477 1475 1475 1474 1474 1475 1475 1475 1475 1475 1475 1475 1475 1478 1480 1483 1485 1487 1490 1493 1496 1499 1500 1500 1500 1499 1499 1499 1498 1500 1500 1501 1502 1504 1506 1498 1486 1487 1490 1492 1494 1491 1498 1511 1504 1492 1492 1494 1497 1499 1502 1504 1506 1509 1511 1513 1515 1517 1519 1521 1524
1521 1518 1516 1513 1511 1508 1506 1504 1502 1499 1497 1495 1493 1491 1489 1487 1486 1485 1485 1484 1483 1482 1481 1480 1479 1478 1477 1476 1475 1475 1474 1474 1474 1474 1474 1475 1474 1474 1475 1475 1478 1480 1483 1486 1488 1491 1494 1497 1499 1500 1499 1500 1500 1500 1500 1500 1499 1499 1504 1505 1503 1506 1498 1487 1486 1488 1490 1492 1489 1497 1506 1499 1489 1488 1491 1494 1497 1499 1501 1504 1506 1508 1510 1513 1515 1517 1520 1522
1519 1517 1515 1512 1510 1507 1505 1503 1500 1499 1496 1494 1492 1490 1488 1486 1485 1484 1484 1484 1482 1481 1480 1479 1478 1478 1477 1476 1475 1474 1474 1473 1473 1473 1473 1473 1474 1474 1474 1475 1478 1481 1484 1486 1489 1492 1495 1497 1499 1499 1499 1500 1500 1501 1502 1503 1501 1499 1502 1503 1502 1503 1499 1491 1487 1484 1486 1489 1490 1494 1499 1496 1489 1486 1488 1492 1494 1496 1499 1501 1504 1506 1508 1510 1513 1515 1517 1521
1518 1516 1514 1512 1509 1506 1504 1502 1499 1498 1495 1493 1491 1489 1487 1485 1484 1484 1484 1483 1481 1480 1480 1479 1478 1477 1476 1475 1475 1474 1472 1471 1471 1472 1472 1473 1473 1473 1474 1475 1478 1482 1485 1487 1490 1492 1495 1497 1498 1498 1499 1499 1499 1501 1507 1508 1504 1500 1500 1501 1500 1500 1498 1496 1490 1484 1484 1488 1491 1492 1493 1492 1487 1485 1488 1490 1492 1494 1496 1498 1501 1504 1506 1508 1511 1513 1515 1517
1517 1515 1513 1511 1508 1505 1503 1501 1499 1497 1495 1493 1490 1488 1486 1485 1484 1483 1483 1482 1480 1480 1480 1479 1478 1477 1476 1475 1475 1474 1471 1469 1468 1470 1471 1471 1472 1473 1474 1475 1477 1482 1485 1488 1489 1491 1494 1496 1496 1498 1498 1499 1498 1500 1505 1505 1499 1498 1500 1501 1501 1499 1497 1496 1492 1486 1485 1488 1491 1492 1492 1490 1486 1486 1487 1489 1490 1492 1492 1495 1498 1500 1504 1506 1508 1510 1512 1514
1516 1514 1512 1510 1507 1504 1502 1500 1498 1496 1494 1492 1490 1488 1486 1484 1483 1483 1483 1482 1481 1481 1481 1481 1481 1482 1482 1478 1476 1474 1470 1468 1467 1468 1470 1470 1471 1472 1474 1476 1478 1481 1484 1486 1488 1489 1491 1494 1497 1498 1495 1494 1493 1494 1496 1495 1493 1494 1496 1498 1499 1497 1495 1493 1490 1485 1485 1490 1490 1490 1491 1489 1487 1486 1486 1488 1489 1490 1491 1493 1496 1499 1502 1504 1506 1508 1509 1511
1515 1513 1511 1508 1506 1503 1502 1500 1498 1496 1494 1492 1490 1487 1485 1485 1484 1483 1483 1482 1483 1484 1484 1484 1484 1484 1483 1479 1477 1474 1470 1469 1468 1468 1469 1470 1471 1472 1474 1477 1479 1482 1482 1482 1486 1487 1489 1492 1492 1489 1486 1486 1488 1491 1492 1492 1493 1495 1495 1497 1497 1496 1493 1489 1489 1485 1483 1490 1490 1487 1488 1487 1486 1484 1483 1486 1488 1489 1491 1492 1495 1497 1499 1501 1503 1504 1506 1507
1514 1512 1510 1507 1505 1503 1501 1500 1498 1496 1494 1493 1490 1487 1489 1491 1489 1489 1486 1483 1483 1484 1484 1484 1484 1484 1482 1479 1477 1474 1472 1471 1470 1470 1470 1470 1471 1472 1475 1477 1479 1482 1481 1481 1484 1487 1489 1489 1485 1481 1482 1485 1488 1491 1493 1494 1495 1496 1496 1497 1496 1496 1492 1487 1488 1486 1483 1490 1490 1485 1488 1486 1483 1482 1480 1483 1487 1487 1487 1489 1491 1493 1496 1498 1499 1501 1504 1507
1513 1511 1509 1506 1504 1502 1501 1500 1498 1497 1495 1494 1491 1490 1492 1494 1493 1493 1491 1487 1484 1483 1484 1484 1484 1483 1481 1479 1477 1476 1475 1473 1471 1471 1471 1471 1471 1472 1474 1476 1477 1478 1479 1481 1484 1488 1490 1485 1479 1479 1482 1486 1489 1491 1494 1496 1496 1497 1496 1498 1498 1494 1492 1489 1487 1486 1485 1490 1490 1486 1488 1485 1479 1479 1478 1480 1482 1482 1483 1483 1485 1488 1491 1493 1495 1498 1502 1506
1513 1510 1508 1505 1503 1502 1501 1500 1498 1497 1496 1494 1493 1492 1493 1493 1493 1492 1492 1490 1486 1483 1484 1483 1483 1482 1480 1479 1477 1476 1476 1474 1473 1472 1471 1472 1471 1472 1473 1474 1475 1476 1478 1479 1480 1485 1488 1480 1476 1479 1482 1486 1490 1491 1493 1495 1496 1495 1495 1497 1497 1493 1494 1493 1489 1487 1485 1486 1487 1487 1487 1482 1478 1478 1477 1477 1478 1478 1481 1482 1484 1485 1486 1487 1490 1494 1498 1501
1512 1509 1507 1505 1503 1502 1501 1500 1499 1497 1496 1494 1494 1494 1493 1493 1492 1491 1491 1491 1488 1485 1484 1483 1483 1482 1481 1480 1478 1477 1476 1475 1475 1473 1472 1472 1472 1472 1472 1472 1474 1475 1477 1476 1476 1479 1479 1474 1473 1478 1483 1486 1489 1490 1491 1494 1495 1493 1491 1493 1493 1492 1494 1493 1489 1488 1485 1484 1484 1487 1492 1485 1478 1480 1477 1474 1476 1477 1480 1482 1484 1485 1486 1489 1491 1493 1496 1497
1511 1508 1506 1505 1503 1502 1501 1500 1498 1497 1496 1494 1494 1494 1493 1492 1491 1490 1490 1490 1489 1485 1484 1483 1483 1482 1482 1480 1479 1477 1476 1475 1475 1474 1473 1472 1472 1471 1471 1472 1474 1474 1475 1476 1477 1477 1475 1472 1473 1477 1481 1484 1486 1487 1487 1490 1492 1491 1488 1487 1490 1491 1493 1493 1492 1491 1492 1492 1485 1487 1501 1492 1476 1477 1476 1473 1476 1477 1477 1479 1480 1482 1486 1489 1490 1491 1494 1496
1511 1508 1506 1504 1503 1502 1500 1499 1498 1497 1496 1495 1494 1493 1492 1491 1489 1489 1489 1489 1488 1485 1484 1484 1484 1483 1482 1480 1478 1476 1475 1475 1474 1474 1472 1471 1471 1470 1470 1470 1471 1473 1473 1475 1478 1475 1472 1471 1473 1476 1478 1481 1484 1485 1484 1486 1491 1490 1483 1482 1488 1491 1493 1494 1494 1496 1499 1497 1486 1485 1499 1495 1479 1475 1471 1471 1475 1474 1474 1475 1475 1478 1482 1484 1486 1488 1490 1492
1510 1507 1505 1504 1502 1501 1500 1499 1498 1497 1495 1495 1494 1492 1491 1489 1488 1488 1488 1491 1491 1486 1486 1486 1485 1484 1483 1482 1479 1476 1479 1477 1473 1473 1471 1470 1470 1469 1470 1468 1469 1471 1469 1475 1481 1473 1467 1471 1473 1475 1477 1479 1481 1481 1479 1482 1488 1487 1478 1480 1488 1490 1494 1494 1494 1497 1495 1492 1488 1483 1490 1496 1487 1475 1468 1469 1473 1473 1473 1473 1471 1475 1478 1478 1481 1484 1485 1488
1509 1507 1505 1503 1502 1500 1499 1498 1497 1496 1495 1494 1493 1491 1489 1487 1487 1486 1487 1493 1492 1487 1488 1488 1486 1486 1484 1483 1481 1479 1482 1480 1475 1473 1470 1470 1469 1469 1469 1466 1467 1468 1466 1473 1477 1468 1464 1469 1471 1474 1478 1478 1475 1474 1474 1479 1485 1482 1477 1480 1485 1488 1491 1492 1494 1496 1492 1496 1499 1486 1486 1498 1491 1473 1468 1470 1472 1474 1473 1470 1470 1471 1473 1474 1477 1479 1481 1484
1508 1506 1503 1502 1501 1499 1498 1497 1496 1495 1494 1493 1492 1490 1487 1486 1486 1485 1488 1494 1491 1487 1490 1489 1486 1488 1485 1483 1483 1482 1482 1481 1479 1475 1471 1470 1468 1467 1469 1466 1466 1466 1465 1468 1469 1465 1463 1465 1468 1471 1474 1473 1471 1472 1472 1477 1481 1478 1477 1479 1482 1486 1488 1490 1494 1493 1494 1503 1502 1488 1486 1498 1490 1470 1469 1473 1472 1471 1469 1466 1466 1467 1469 1471 1473 1476 1479 1482
1507 1504 1502 1500 1499 1498 1497 1496 1496 1495 1493 1492 1491 1489 1487 1486 1486 1488 1494 1495 1490 1490 1491 1489 1489 1490 1487 1484 1483 1483 1482 1482 1481 1476 1472 1471 1468 1467 1468 1467 1466 1465 1465 1465 1465 1464 1462 1463 1464 1465 1466 1466 1468 1471 1471 1474 1476 1475 1478 1480 1483 1486 1486 1489 1490 1491 1502 1503 1494 1484 1482 1493 1493 1470 1462 1468 1465 1462 1463 1463 1464 1464 1465 1468 1470 1473 1477 1479
1505 1502 1500 1498 1497 1496 1495 1494 1494 1494 1492 1491 1489 1487 1487 1487 1487 1492 1496 1492 1491 1492 1491 1491 1492 1491 1490 1488 1487 1485 1483 1482 1481 1478 1475 1473 1471 1470 1470 1471 1472 1468 1466 1466 1465 1463 1463 1463 1463 1461 1461 1463 1467 1470 1471 1471 1472 1475 1478 1481 1487 1491 1490 1494 1494 1497 1509 1500 1483 1477 1477 1488 1491 1468 1456 1457 1454 1454 1457 1459 1460 1460 1461 1463 1466 1469 1472 1474
1504 1501 1498 1496 1496 1495 1494 1493 1492 1492 1491 1490 1488 1486 1487 1489 1490 1494 1494 1491 1493 1494 1492 1493 1493 1492 1492 1491 1490 1489 1486 1485 1483 1481 1481 1479 1478 1479 1480 1482 1483 1477 1470 1467 1466 1464 1462 1459 1459 1460 1459 1460 1465 1470 1471 1471 1471 1475 1477 1481 1493 1500 1502 1506 1504 1501 1503 1491 1476 1473 1477 1483 1476 1459 1454 1454 1451 1451 1452 1452 1454 1455 1456 1458 1461 1464 1467 1470
1502 1499 1497 1495 1495 1494 1493 1492 1491 1491 1490 1488 1487 1486 1487 1491 1495 1496 1494 1493 1495 1495 1493 1495 1494 1493 1493 1492 1493 1492 1489 1489 1487 1484 1484 1483 1483 1485 1486 1486 1486 1483 1476 1471 1469 1467 1464 1459 1457 1460 1459 1457 1460 1465 1470 1471 1470 1473 1475 1480 1491 1500 1508 1512 1505 1499 1497 1486 1474 1472 1479 1480 1467 1454 1450 1449 1449 1448 1447 1449 1451 1451 1453 1454 1456 1460 1463 1467
1501 1498 1496 1495 1494 1493 1492 1491 1490 1489 1488 1487 1486 1486 1489 1495 1497 1496 1495 1495 1496 1495 1495 1496 1495 1494 1494 1494 1496 1494 1491 1491 1489 1487 1486 1484 1485 1487 1487 1487 1486 1484 1482 1477 1472 1468 1469 1465 1457 1456 1459 1457 1456 1457 1460 1463 1467 1468 1467 1472 1480 1484 1495 1501 1497 1496 1495 1485 1476 1476 1481 1475 1463 1453 1443 1440 1442 1442 1443 1446 1448 1449 1450 1451 1454 1457 1461 1463
1499 1497 1496 1494 1494 1492 1490 1489 1489 1489 1488 1486 1485 1487 1493 1499 1499 1498 1497 1496 1496 1495 1496 1496 1496 1496 1496 1496 1497 1495 1494 1493 1490 1490 1489 1488 1490 1491 1491 1491 1488 1487 1486 1481 1475 1471 1471 1466 1456 1455 1457 1457 1457 1454 1453 1458 1466 1464 1461 1469 1473 1470 1475 1484 1484 1483 1485 1485 1479 1476 1471 1457 1451 1446 1437 1438 1439 1437 1440 1441 1442 1445 1446 1449 1453 1454 1456 1458
1498 1496 1495 1494 1492 1490 1488 1487 1487 1488 1488 1485 1486 1492 1498 1500 1500 1499 1498 1497 1497 1496 1496 1496 1496 1497 1498 1498 1497 1496 1495 1494 1492 1492 1491 1492 1494 1493 1494 1493 1491 1491 1490 1487 1484 1480 1476 1466 1457 1457 1457 1455 1458 1456 1453 1457 1461 1460 1462 1466 1463 1460 1466 1478 1483 1477 1481 1488 1477 1468 1465 1454 1450 1447 1435 1437 1441 1437 1438 1438 1438 1440 1441 1445 1448 1449 1452 1453
1497 1495 1494 1492 1490 1488 1487 1486 1485 1486 1486 1484 1488 1496 1500 1500 1500 1499 1498 1498 1497 1497 1497 1498 1499 1500 1500 1499 1499 1497 1496 1495 1494 1493 1493 1494 1495 1495 1495 1494 1493 1493 1493 1492 1489 1485 1483 1472 1459 1459 1458 1455 1456 1457 1453 1452 1453 1457 1462 1459 1457 1463 1465 1471 1483 1484 1487 1490 1474 1463 1463 1457 1457 1452 1436 1435 1441 1438 1437 1436 1435 1436 1438 1441 1443 1444 1446 1447
1496 1494 1494 1492 1489 1487 1486 1485 1485 1485 1485 1486 1492 1498 1499 1499 1500 1499 1498 1498 1497 1496 1498 1500 1500 1501 1501 1501 1500 1499 1498 1497 1496 1496 1495 1495 1496 1497 1497 1495 1494 1493 1493 1494 1489 1485 1486 1480 1463 1458 1461 1456 1453 1455 1455 1451 1449 1452 1453 1449 1455 1470 1471 1471 1481 1484 1485 1487 1476 1466 1462 1453 1450 1446 1436 1435 1437 1435 1434 1434 1433 1433 1434 1436 1437 1439 1441 1443
1495 1494 1493 1492 1490 1488 1486 1485 1485 1485 1485 1490 1496 1499 1500 1500 1500 1499 1499 1498 1497 1497 1498 1501 1501 1500 1501 1502 1502 1501 1500 1500 1499 1498 1497 1497 1497 1498 1498 1497 1496 1493 1492 1492 1490 1485 1485 1484 1470 1459 1460 1459 1454 1454 1455 1451 1448 1448 1449 1448 1449 1458 1462 1464 1468 1470 1475 1481 1477 1471 1466 1453 1441 1436 1434 1435 1432 1430 1431 1431 1430 1430 1430 1431 1432 1434 1437 1439
1495 1493 1494 1493 1489 1488 1487 1486 1486 1486 1489 1495 1499 1500 1501 1501 1500 1500 1499 1498 1497 1498 1499 1500 1501 1501 1502 1503 1503 1502 1501 1501 1500 1499 1498 1498 1498 1498 1498 1499 1497 1494 1492 1490 1489 1486 1484 1485 1477 1463 1458 1458 1454 1451 1451 1451 1450 1450 1452 1451 1450 1450 1453 1456 1457 1455 1462 1472 1473 1473 1469 1450 1432 1428 1430 1429 1427 1426 1426 1425 1425 1424 1425 1426 1427 1429 1432 1434
1495 1494 1494 1492 1489 1488 1487 1487 1490 1492 1495 1499 1501 1502 1503 1502 1501 1501 1499 1498 1498 1499 1499 1500 1500 1502 1503 1503 1502 1502 1502 1501 1500 1500 1499 1498 1499 1499 1499 1499 1498 1497 1494 1490 1488 1487 1485 1485 1482 1471 1464 1458 1452 1449 1452 1454 1455 1456 1455 1451 1449 1449 1451 1461 1464 1452 1450 1458 1461 1466 1467 1445 1425 1422 1423 1422 1421 1420 1420 1421 1421 1419 1421 1422 1423 1425 1427 1428
1496 1497 1497 1493 1490 1489 1488 1491 1496 1498 1499 1502 1504 1505 1504 1503 1503 1502 1501 1500 1500 1500 1500 1501 1501 1502 1503 1503 1502 1502 1502 1501 1500 1500 1499 1498 1499 1499 1499 1499 1499 1498 1496 1492 1489 1488 1487 1487 1485 1479 1469 1459 1452 1451 1453 1454 1455 1458 1458 1453 1451 1448 1447 1457 1462 1452 1447 1451 1449 1455 1460 1443 1422 1419 1421 1418 1417 1416 1416 1418 1417 1416 1417 1418 1419 1421 1422 1424
1499 1500 1499 1494 1491 1490 1489 1494 1500 1501 1502 1505 1506 1506 1506 1505 1505 1504 1503 1503 1502 1502 1502 1502 1503 1503 1504 1503 1503 1502 1501 1501 1500 1499 1499 1499 1498 1498 1499 1500 1499 1497 1496 1493 1490 1488 1487 1487 1485 1478 1467 1457 1452 1451 1452 1452 1453 1457 1458 1457 1458 1457 1455 1456 1456 1450 1448 1447 1447 1456 1460 1442 1422 1417 1419 1418 1416 1416 1416 1417 1417 1416 1415 1415 1416 1418 1419 1420
1501 1501 1499 1496 1493 1490 1493 1500 1503 1504 1506 1507 1506 1507 1507 1507 1507 1506 1506 1505 1505 1504 1504 1505 1505 1505 1505 1504 1503 1502 1502 1502 1501 1499 1499 1499 1498 1499 1499 1499 1499 1498 1496 1495 1492 1491 1489 1486 1483 1477 1468 1462 1458 1456 1454 1452 1454 1459 1461 1462 1462 1462 1462 1458 1453 1452 1451 1443 1441 1452 1454 1438 1421 1417 1418 1417 1416 1416 1415 1415 1417 1416 1415 1416 1416 1417 1418 1419
1503 1501 1501 1499 1496 1493 1499 1506 1506 1506 1508 1508 1508 1509 1509 1508 1509 1509 1508 1508 1507 1506 1506 1507 1507 1506 1506 1505 1503 1502 1502 1502 1502 1500 1499 1499 1498 1498 1498 1499 1499 1498 1497 1496 1494 1494 1492 1486 1483 1479 1471 1465 1464 1464 1461 1459 1461 1462 1462 1463 1463 1463 1464 1460 1455 1455 1453 1442 1435 1441 1442 1431 1420 1419 1420 1418 1415 1414 1413 1413 1414 1414 1414 1415 1415 1416 1418 1419
1505 1504 1504 1503 1500 1500 1504 1508 1508 1508 1510 1510 1510 1511 1511 1510 1510 1510 1509 1509 1508 1507 1507 1507 1507 1506 1507 1506 1506 1505 1503 1502 1503 1502 1501 1500 1498 1497 1498 1499 1499 1498 1497 1496 1495 1494 1492 1486 1483 1482 1475 1466 1467 1472 1471 1468 1467 1465 1462 1461 1462 1463 1464 1464 1462 1457 1451 1445 1438 1434 1433 1430 1424 1422 1422 1418 1415 1413 1411 1410 1411 1412 1412 1413 1413 1414 1415 1417
1508 1509 1509 1507 1505 1505 1507 1509 1510 1510 1511 1512 1512 1513 1513 1513 1511 1510 1509 1509 1510 1509 1508 1508 1508 1508 1509 1510 1510 1509 1505 1503 1504 1503 1501 1500 1498 1497 1497 1497 1498 1497 1496 1495 1495 1494 1493 1488 1482 1480 1477 1471 1470 1472 1471 1470 1468 1466 1464 1461 1460 1461 1462 1464 1463 1456 1452 1453 1445 1431 1429 1431 1427 1422 1421 1417 1414 1412 1410 1409 1409 1410 1410 1411 1411 1412 1412 1413
1509 1512 1513 1511 1511 1511 1511 1511 1512 1512 1511 1512 1513 1514 1514 1514 1513 1513 1512 1511 1510 1510 1509 1509 1510 1511 1512 1513 1513 1511 1508 1506 1505 1504 1502 1501 1499 1498 1497 1496 1496 1496 1495 1494 1494 1493 1493 1489 1481 1478 1476 1471 1469 1470 1469 1469 1467 1465 1464 1461 1458 1459 1460 1462 1460 1455 1454 1457 1450 1436 1432 1434 1429 1423 1420 1416 1413 1411 1409 1408 1409 1409 1409 1410 1410 1411 1411 1411
1512 1513 1513 1513 1513 1515 1515 1514 1514 1513 1512 1512 1513 1514 1515 1514 1515 1515 1514 1512 1511 1511 1511 1511 1511 1512 1512 1513 1513 1512 1509 1508 1507 1505 1504 1503 1502 1501 1500 1497 1494 1494 1494 1494 1493 1493 1493 1488 1482 1480 1477 1471 1468 1469 1468 1467 1464 1462 1461 1459 1456 1455 1455 1455 1454 1450 1451 1452 1448 1440 1437 1436 1431 1426 1422 1418 1415 1413 1410 1409 1410 1410 1410 1410 1410 1411 1410 1410
1514 1514 1514 1514 1514 1515 1515 1515 1515 1514 1513 1514 1514 1515 1515 1515 1515 1515 1514 1514 1513 1511 1512 1512 1512 1512 1512 1512 1513 1511 1509 1508 1508 1506 1505 1505 1503 1502 1501 1498 1495 1493 1494 1493 1492 1493 1492 1487 1481 1481 1479 1471 1466 1465 1465 1464 1462 1460 1457 1454 1452 1452 1451 1450 1448 1446 1446 1447 1444 1442 1442 1438 1431 1426 1424 1421 1418 1415 1413 1412 1411 1411 1411 1411 1410 1409 1408 1407
1515 1515 1515 1515 1514 1515 1515 1516 1515 1515 1514 1515 1515 1516 1516 1515 1516 1515 1513 1513 1513 1512 1512 1512 1512 1512 1511 1511 1511 1509 1507 1507 1506 1505 1504 1504 1501 1500 1499 1497 1495 1494 1493 1493 1493 1492 1491 1488 1482 1484 1482 1471 1462 1462 1462 1460 1459 1457 1453 1450 1449 1448 1446 1446 1445 1444 1446 1446 1443 1440 1439 1436 1431 1428 1425 1422 1418 1417 1416 1415 1414 1413 1412 1411 1409 1407 1405 1404
1516 1516 1516 1515 1515 1515 1515 1516 1516 1515 1515 1516 1516 1517 1517 1516 1516 1516 1514 1512 1512 1512 1512 1512 1512 1511 1510 1509 1508 1507 1506 1505 1504 1502 1500 1499 1497 1495 1495 1493 1493 1493 1492 1492 1493 1491 1491 1489 1485 1486 1484 1471 1462 1463 1461 1459 1459 1452 1442 1438 1440 1442 1442 1443 1444 1444 1444 1445 1444 1439 1434 1433 1432 1430 1426 1422 1420 1419 1417 1417 1416 1414 1413 1411 1408 1405 1402 1399